Time,TemperatureF,DewpointF,PressureIn,WindDirection,WindDirectionDegrees,WindSpeedMPH,WindSpeedGustMPH,Humidity,HourlyPrecipIn,Conditions,Clouds,dailyrainin,SoftwareType,DateUTC
2013-05-11 00:01:00,60.8,55.3,29.93,North,355,3.5,3.5,82,0.00,RA,,0.00,WeatherDisplay:10.37,2013-05-11 05:01:00,
2013-05-11 00:06:00,60.6,55.1,29.93,NW,318,1.1,1.1,82,0.00,RA,,0.00,WeatherDisplay:10.37,2013-05-11 05:06:00,
2013-05-11 00:11:00,60.5,55.3,29.93,NW,311,0.0,0.2,83,0.00,CLR,,0.00,WeatherDisplay:10.37,2013-05-11 05:11:00,
2013-05-11 00:16:00,60.4,55.2,29.93,NW,321,0.0,0.2,83,0.00,CLR,,0.00,WeatherDisplay:10.37,2013-05-11 05:16:00,
2013-05-11 00:21:00,60.2,55.3,29.93,NNW,338,2.3,2.3,84,0.00,CLR,,0.00,WeatherDisplay:10.37,2013-05-11 05:21:00,
2013-05-11 00:26:00,60.0,55.2,29.93,NNW,333,1.1,1.1,84,0.00,CLR,,0.00,WeatherDisplay:10.37,2013-05-11 05:26:00,
2013-05-11 00:31:00,59.9,55.4,29.93,West,261,2.0,2.0,85,0.00,CLR,,0.00,WeatherDisplay:10.37,2013-05-11 05:31:00,
2013-05-11 00:36:00,59.7,55.2,29.93,NW,313,1.1,1.1,85,0.00,CLR,,0.00,WeatherDisplay:10.37,2013-05-11 05:36:00,
2013-05-11 00:42:00,59.4,55.2,29.92,NW,313,1.1,1.1,86,0.00,CLR,,0.00,WeatherDisplay:10.37,2013-05-11 05:42:00,
2013-05-11 00:47:00,59.2,55.0,29.92,NW,316,0.0,0.0,86,0.00,CLR,,0.00,WeatherDisplay:10.37,2013-05-11 05:47:00,
2013-05-11 00:52:00,59.0,55.1,29.92,NW,316,1.1,1.1,87,0.00,CLR,,0.00,WeatherDisplay:10.37,2013-05-11 05:52:00,
2013-05-11 00:57:00,58.8,54.9,29.92,NW,316,1.1,0.0,87,0.00,CLR,,0.00,WeatherDisplay:10.37,2013-05-11 05:57:00,
2013-05-11 01:02:00,58.5,55.0,29.92,WNW,283,3.5,3.5,88,0.00,CLR,,0.00,WeatherDisplay:10.37,2013-05-11 06:02:00,
2013-05-11 01:07:00,58.3,54.8,29.92,North,5,2.0,2.0,88,0.00,CLR,,0.00,WeatherDisplay:10.37,2013-05-11 06:07:00,
2013-05-11 01:12:00,58.1,54.6,29.92,West,271,5.0,5.0,88,0.00,CLR,,0.00,WeatherDisplay:10.37,2013-05-11 06:12:00,
2013-05-11 01:17:00,57.9,54.4,29.92,NW,311,3.5,3.5,88,0.00,CLR,,0.00,WeatherDisplay:10.37,2013-05-11 06:17:00,
2013-05-11 01:22:00,57.8,54.3,29.92,WNW,293,2.3,2.3,88,0.00,CLR,,0.00,WeatherDisplay:10.37,2013-05-11 06:22:00,
2013-05-11 01:27:00,57.7,54.2,29.92,WNW,283,4.6,4.6,88,0.00,CLR,,0.00,WeatherDisplay:10.37,2013-05-11 06:27:00,
2013-05-11 01:32:00,57.6,54.1,29.92,NW,315,2.3,2.3,88,0.00,CLR,,0.00,WeatherDisplay:10.37,2013-05-11 06:32:00,
2013-05-11 01:37:00,57.5,54.3,29.92,WNW,293,0.0,0.0,89,0.00,CLR,,0.00,WeatherDisplay:10.37,2013-05-11 06:37:00,
2013-05-11 01:42:00,57.5,54.0,29.92,West,263,3.5,3.5,88,0.00,CLR,,0.00,WeatherDisplay:10.37,2013-05-11 06:42:00,
2013-05-11 01:47:00,57.5,54.0,29.92,NNW,327,1.1,0.0,88,0.00,CLR,,0.00,WeatherDisplay:10.37,2013-05-11 06:47:00,
2013-05-11 01:52:00,57.5,54.0,29.92,NW,312,0.0,0.0,88,0.00,CLR,,0.00,WeatherDisplay:10.37,2013-05-11 06:52:00,
2013-05-11 01:57:00,57.4,53.9,29.92,NW,312,0.0,0.0,88,0.00,CLR,,0.00,WeatherDisplay:10.37,2013-05-11 06:57:00,
2013-05-11 02:02:00,57.3,53.8,29.92,NW,306,2.3,2.3,88,0.00,CLR,,0.00,WeatherDisplay:10.37,2013-05-11 07:02:00,
2013-05-11 02:07:00,57.1,53.6,29.93,NW,304,2.3,2.3,88,0.00,CLR,,0.00,WeatherDisplay:10.37,2013-05-11 07:07:00,
2013-05-11 02:12:00,57.0,53.5,29.92,NW,304,1.1,0.0,88,0.00,CLR,,0.00,WeatherDisplay:10.37,2013-05-11 07:12:00,
2013-05-11 02:17:00,56.9,53.4,29.92,NW,304,1.1,1.1,88,0.00,CLR,,0.00,WeatherDisplay:10.37,2013-05-11 07:17:00,
2013-05-11 02:22:00,56.8,53.6,29.92,NW,309,1.1,0.0,89,0.00,CLR,,0.00,WeatherDisplay:10.37,2013-05-11 07:22:00,
2013-05-11 02:27:00,56.9,53.7,29.92,NW,309,1.1,1.1,89,0.00,CLR,,0.00,WeatherDisplay:10.37,2013-05-11 07:27:00,
2013-05-11 02:32:00,56.8,53.6,29.92,NW,309,0.0,0.0,89,0.00,CLR,,0.00,WeatherDisplay:10.37,2013-05-11 07:32:00,
2013-05-11 02:37:00,56.8,53.6,29.92,NW,311,0.0,0.0,89,0.00,CLR,,0.00,WeatherDisplay:10.37,2013-05-11 07:37:00,
2013-05-11 02:42:00,56.7,53.5,29.91,NW,311,0.0,0.0,89,0.00,CLR,,0.00,WeatherDisplay:10.37,2013-05-11 07:42:00,
2013-05-11 02:47:00,56.6,53.4,29.91,NW,311,0.0,0.0,89,0.00,CLR,,0.00,WeatherDisplay:10.37,2013-05-11 07:47:00,
2013-05-11 02:52:00,56.6,53.4,29.91,NW,311,0.0,0.0,89,0.00,CLR,,0.00,WeatherDisplay:10.37,2013-05-11 07:52:00,
2013-05-11 02:57:00,56.5,53.3,29.91,NW,311,0.0,0.0,89,0.00,CLR,,0.00,WeatherDisplay:10.37,2013-05-11 07:57:00,
2013-05-11 03:02:00,56.4,53.2,29.91,NW,312,0.0,0.0,89,0.00,CLR,,0.00,WeatherDisplay:10.37,2013-05-11 08:02:00,
2013-05-11 03:07:00,56.3,53.1,29.91,NW,311,0.0,0.0,89,0.00,CLR,,0.00,WeatherDisplay:10.37,2013-05-11 08:07:00,
2013-05-11 03:12:00,56.2,53.0,29.92,NW,312,0.0,0.0,89,0.00,CLR,,0.00,WeatherDisplay:10.37,2013-05-11 08:12:00,
2013-05-11 03:17:00,56.1,52.9,29.92,NW,311,0.0,0.0,89,0.00,CLR,,0.00,WeatherDisplay:10.37,2013-05-11 08:17:00,
2013-05-11 03:22:00,55.9,52.7,29.92,NW,311,0.0,0.0,89,0.00,CLR,,0.00,WeatherDisplay:10.37,2013-05-11 08:22:00,
2013-05-11 03:27:00,55.7,52.8,29.92,NW,311,0.0,0.0,90,0.00,CLR,,0.00,WeatherDisplay:10.37,2013-05-11 08:27:00,
2013-05-11 03:32:00,55.6,52.7,29.93,NW,311,0.0,0.0,90,0.00,CLR,,0.00,WeatherDisplay:10.37,2013-05-11 08:32:00,
2013-05-11 03:37:00,55.5,52.6,29.93,NW,311,0.0,0.0,90,0.00,CLR,,0.00,WeatherDisplay:10.37,2013-05-11 08:37:00,
2013-05-11 03:42:00,55.4,52.5,29.92,NW,311,0.0,0.0,90,0.00,CLR,,0.00,WeatherDisplay:10.37,2013-05-11 08:42:00,
2013-05-11 03:47:00,55.3,52.7,29.92,NW,311,0.0,0.0,91,0.00,CLR,,0.00,WeatherDisplay:10.37,2013-05-11 08:47:00,
2013-05-11 03:52:00,55.4,52.8,29.92,NW,311,0.0,0.0,91,0.00,CLR,,0.00,WeatherDisplay:10.37,2013-05-11 08:52:00,
2013-05-11 03:57:00,55.4,53.1,29.92,NW,311,0.0,0.0,92,0.00,CLR,,0.00,WeatherDisplay:10.37,2013-05-11 08:57:00,
2013-05-11 04:02:00,55.5,53.2,29.92,NW,311,1.1,1.1,92,0.00,CLR,,0.00,WeatherDisplay:10.37,2013-05-11 09:02:00,
2013-05-11 04:07:00,55.5,53.2,29.92,NW,311,1.1,1.1,92,0.00,CLR,,0.00,WeatherDisplay:10.37,2013-05-11 09:07:00,
2013-05-11 04:12:00,55.5,53.2,29.92,NW,313,1.1,1.1,92,0.00,CLR,,0.00,WeatherDisplay:10.37,2013-05-11 09:12:00,
2013-05-11 04:17:00,55.6,53.3,29.91,NW,313,0.0,0.0,92,0.00,CLR,,0.00,WeatherDisplay:10.37,2013-05-11 09:17:00,
2013-05-11 04:22:00,55.6,53.0,29.91,NW,313,0.0,0.0,91,0.00,CLR,,0.00,WeatherDisplay:10.37,2013-05-11 09:22:00,
2013-05-11 04:27:00,55.6,53.0,29.91,NW,323,1.1,0.0,91,0.00,CLR,,0.00,WeatherDisplay:10.37,2013-05-11 09:27:00,
2013-05-11 04:32:00,55.5,52.9,29.91,NW,323,1.1,0.0,91,0.00,CLR,,0.00,WeatherDisplay:10.37,2013-05-11 09:32:00,
2013-05-11 04:37:00,55.4,52.8,29.92,NW,323,2.3,2.3,91,0.00,CLR,,0.00,WeatherDisplay:10.37,2013-05-11 09:37:00,
2013-05-11 04:42:00,55.3,52.7,29.92,NW,323,0.0,0.0,91,0.00,CLR,,0.00,WeatherDisplay:10.37,2013-05-11 09:42:00,
2013-05-11 04:47:00,55.3,52.7,29.92,NW,323,0.0,0.0,91,0.00,CLR,,0.00,WeatherDisplay:10.37,2013-05-11 09:47:00,
2013-05-11 04:52:00,55.3,52.7,29.91,NW,323,0.0,0.0,91,0.00,CLR,,0.00,WeatherDisplay:10.37,2013-05-11 09:52:00,
2013-05-11 04:57:00,55.4,52.8,29.91,NW,323,0.0,0.0,91,0.00,CLR,,0.00,WeatherDisplay:10.37,2013-05-11 09:57:00,
2013-05-11 05:02:00,55.4,52.8,29.92,NW,323,0.0,0.0,91,0.00,CLR,,0.00,WeatherDisplay:10.37,2013-05-11 10:02:00,
2013-05-11 05:07:00,55.4,52.8,29.91,NW,323,0.0,0.0,91,0.00,CLR,,0.00,WeatherDisplay:10.37,2013-05-11 10:07:00,
2013-05-11 05:12:00,55.3,52.7,29.91,NW,323,0.0,0.0,91,0.00,CLR,,0.00,WeatherDisplay:10.37,2013-05-11 10:12:00,
2013-05-11 05:17:00,55.3,52.7,29.91,NW,323,0.0,0.0,91,0.00,CLR,,0.00,WeatherDisplay:10.37,2013-05-11 10:17:00,
2013-05-11 05:22:00,55.2,52.6,29.91,NW,323,0.0,0.0,91,0.00,CLR,,0.00,WeatherDisplay:10.37,2013-05-11 10:22:00,
2013-05-11 05:27:00,55.1,52.5,29.91,NW,323,0.0,0.0,91,0.00,CLR,,0.00,WeatherDisplay:10.37,2013-05-11 10:27:00,
2013-05-11 05:32:00,55.1,52.5,29.92,NW,323,0.0,0.0,91,0.00,CLR,,0.00,WeatherDisplay:10.37,2013-05-11 10:32:00,
2013-05-11 05:37:00,55.1,52.5,29.92,NW,323,0.0,0.0,91,0.00,CLR,,0.00,WeatherDisplay:10.37,2013-05-11 10:37:00,
2013-05-11 05:42:00,55.2,52.6,29.92,NW,315,2.0,2.0,91,0.00,CLR,,0.00,WeatherDisplay:10.37,2013-05-11 10:42:00,
2013-05-11 05:47:00,55.2,52.6,29.92,WNW,299,3.5,0.0,91,0.00,CLR,,0.00,WeatherDisplay:10.37,2013-05-11 10:47:00,
2013-05-11 05:52:00,55.2,52.6,29.93,WNW,299,0.0,0.0,91,0.00,CLR,,0.00,WeatherDisplay:10.37,2013-05-11 10:52:00,
2013-05-11 05:57:00,55.3,52.7,29.93,WNW,299,0.0,0.0,91,0.00,CLR,,0.00,WeatherDisplay:10.37,2013-05-11 10:57:00,
2013-05-11 06:02:00,55.3,52.7,29.93,WNW,299,0.0,0.0,91,0.00,CLR,,0.00,WeatherDisplay:10.37,2013-05-11 11:02:00,
2013-05-11 06:07:00,55.4,52.8,29.93,WNW,299,0.0,0.0,91,0.00,CLR,,0.00,WeatherDisplay:10.37,2013-05-11 11:07:00,
2013-05-11 06:12:00,55.5,52.9,29.94,WNW,299,0.0,0.0,91,0.00,CLR,,0.00,WeatherDisplay:10.37,2013-05-11 11:12:00,
2013-05-11 06:17:00,55.5,52.9,29.94,WNW,299,0.0,0.0,91,0.00,CLR,,0.00,WeatherDisplay:10.37,2013-05-11 11:17:00,
2013-05-11 06:22:00,55.5,52.9,29.94,WNW,299,0.0,0.0,91,0.00,CLR,,0.00,WeatherDisplay:10.37,2013-05-11 11:22:00,
2013-05-11 06:27:00,55.6,53.0,29.94,NW,315,1.1,0.0,91,0.00,CLR,,0.00,WeatherDisplay:10.37,2013-05-11 11:27:00,
2013-05-11 06:32:00,55.6,53.0,29.94,NW,319,0.0,0.0,91,0.00,CLR,,0.00,WeatherDisplay:10.37,2013-05-11 11:32:00,
2013-05-11 06:37:00,55.7,53.1,29.95,NW,319,0.0,0.0,91,0.00,CLR,,0.00,WeatherDisplay:10.37,2013-05-11 11:37:00,
2013-05-11 06:42:00,55.9,53.3,29.95,NW,321,1.1,0.0,91,0.00,CLR,,0.00,WeatherDisplay:10.37,2013-05-11 11:42:00,
2013-05-11 06:47:00,56.0,53.4,29.95,WNW,284,0.0,0.0,91,0.00,CLR,,0.00,WeatherDisplay:10.37,2013-05-11 11:47:00,
2013-05-11 06:52:00,56.1,53.5,29.95,WNW,284,0.0,0.0,91,0.00,CLR,,0.00,WeatherDisplay:10.37,2013-05-11 11:52:00,
2013-05-11 06:57:00,56.2,53.6,29.95,WSW,249,1.1,0.0,91,0.00,CLR,,0.00,WeatherDisplay:10.37,2013-05-11 11:57:00,
2013-05-11 07:02:00,56.3,53.4,29.95,NW,321,1.1,1.1,90,0.00,CLR,,0.00,WeatherDisplay:10.37,2013-05-11 12:02:00,
2013-05-11 07:07:00,56.3,53.4,29.95,WNW,300,1.0,1.0,90,0.00,CLR,,0.00,WeatherDisplay:10.37,2013-05-11 12:07:00,
2013-05-11 07:12:00,56.3,53.4,29.95,NNW,343,1.1,0.0,90,0.00,CLR,,0.00,WeatherDisplay:10.37,2013-05-11 12:12:00,
2013-05-11 07:17:00,56.3,53.4,29.95,NNW,343,0.0,0.0,90,0.00,CLR,,0.00,WeatherDisplay:10.37,2013-05-11 12:17:00,
2013-05-11 07:22:00,56.4,53.5,29.95,NNW,343,0.0,0.0,90,0.00,CLR,,0.00,WeatherDisplay:10.37,2013-05-11 12:22:00,
2013-05-11 07:28:00,56.4,53.5,29.95,NNE,13,1.1,1.1,90,0.00,CLR,,0.00,WeatherDisplay:10.37,2013-05-11 12:28:00,
2013-05-11 07:32:00,56.4,53.2,29.95,NW,308,4.6,0.0,89,0.00,CLR,,0.00,WeatherDisplay:10.37,2013-05-11 12:32:00,
2013-05-11 07:38:00,56.5,53.3,29.95,NNW,340,1.1,1.1,89,0.00,CLR,,0.00,WeatherDisplay:10.37,2013-05-11 12:38:00,
2013-05-11 07:43:00,56.6,53.4,29.95,WNW,298,2.3,2.3,89,0.00,CLR,,0.00,WeatherDisplay:10.37,2013-05-11 12:43:00,
2013-05-11 07:48:00,56.8,53.6,29.95,NW,324,3.5,3.5,89,0.00,CLR,,0.00,WeatherDisplay:10.37,2013-05-11 12:48:00,
2013-05-11 07:53:00,56.9,53.4,29.95,North,350,0.0,0.0,88,0.00,CLR,,0.00,WeatherDisplay:10.37,2013-05-11 12:53:00,
2013-05-11 07:58:00,57.0,53.2,29.95,WSW,250,8.1,8.1,87,0.00,CLR,,0.00,WeatherDisplay:10.37,2013-05-11 12:58:00,
2013-05-11 08:03:00,57.0,53.2,29.95,NW,309,3.5,3.5,87,0.00,CLR,,0.00,WeatherDisplay:10.37,2013-05-11 13:03:00,
2013-05-11 08:08:00,57.0,52.9,29.95,NW,310,4.6,4.6,86,0.00,CLR,,0.00,WeatherDisplay:10.37,2013-05-11 13:08:00,
2013-05-11 08:13:00,57.1,52.6,29.95,NW,320,3.5,3.5,85,0.00,CLR,,0.00,WeatherDisplay:10.37,2013-05-11 13:13:00,
2013-05-11 08:18:00,57.2,53.0,29.96,NW,316,4.0,4.0,86,0.00,CLR,,0.00,WeatherDisplay:10.37,2013-05-11 13:18:00,
2013-05-11 08:23:00,57.2,52.7,29.96,NW,308,3.5,3.5,85,0.00,CLR,,0.00,WeatherDisplay:10.37,2013-05-11 13:23:00,
2013-05-11 08:28:00,57.3,53.1,29.96,NNW,336,2.3,2.3,86,0.00,CLR,,0.00,WeatherDisplay:10.37,2013-05-11 13:28:00,
2013-05-11 08:33:00,57.5,53.3,29.96,NNW,340,1.1,1.1,86,0.00,CLR,,0.00,WeatherDisplay:10.37,2013-05-11 13:33:00,
2013-05-11 08:38:00,57.6,53.1,29.96,NNW,331,2.3,2.3,85,0.00,CLR,,0.00,WeatherDisplay:10.37,2013-05-11 13:38:00,
2013-05-11 08:43:00,57.7,52.9,29.97,NNW,327,3.5,3.5,84,0.00,CLR,,0.00,WeatherDisplay:10.37,2013-05-11 13:43:00,
2013-05-11 08:48:00,57.8,52.7,29.97,NW,311,3.5,3.5,83,0.00,CLR,,0.00,WeatherDisplay:10.37,2013-05-11 13:48:00,
2013-05-11 08:53:00,57.9,52.8,29.97,WNW,301,4.0,4.0,83,0.00,CLR,,0.00,WeatherDisplay:10.37,2013-05-11 13:53:00,
2013-05-11 08:58:00,58.0,52.9,29.97,NW,309,3.5,3.5,83,0.00,CLR,,0.00,WeatherDisplay:10.37,2013-05-11 13:58:00,
2013-05-11 09:03:00,58.1,53.0,29.97,West,264,4.6,4.6,83,0.00,CLR,,0.00,WeatherDisplay:10.37,2013-05-11 14:03:00,
2013-05-11 09:08:00,58.1,53.0,29.96,West,261,1.1,1.1,83,0.00,CLR,,0.00,WeatherDisplay:10.37,2013-05-11 14:08:00,
2013-05-11 09:13:00,58.2,52.7,29.96,WNW,288,3.5,3.5,82,0.00,CLR,,0.00,WeatherDisplay:10.37,2013-05-11 14:13:00,
2013-05-11 09:18:00,58.2,52.4,29.95,West,269,5.0,5.0,81,0.00,CLR,,0.00,WeatherDisplay:10.37,2013-05-11 14:18:00,
2013-05-11 09:23:00,58.3,52.5,29.96,NNW,338,1.1,1.1,81,0.00,CLR,,0.00,WeatherDisplay:10.37,2013-05-11 14:23:00,
2013-05-11 09:28:00,58.4,52.3,29.96,WNW,294,3.5,3.5,80,0.00,CLR,,0.00,WeatherDisplay:10.37,2013-05-11 14:28:00,
2013-05-11 09:33:00,58.6,52.4,29.96,NW,311,4.6,4.6,80,0.00,CLR,,0.00,WeatherDisplay:10.37,2013-05-11 14:33:00,
2013-05-11 09:38:00,58.8,52.6,29.96,WSW,257,4.0,4.0,80,0.00,CLR,,0.00,WeatherDisplay:10.37,2013-05-11 14:38:00,
2013-05-11 09:43:00,59.2,52.7,29.96,North,355,3.5,3.5,79,0.00,CLR,,0.00,WeatherDisplay:10.37,2013-05-11 14:43:00,
2013-05-11 09:48:00,59.6,53.8,29.96,NW,315,5.0,5.0,81,0.00,CLR,,0.00,WeatherDisplay:10.37,2013-05-11 14:48:00,
2013-05-11 09:53:00,59.8,52.9,29.97,North,355,2.3,2.3,78,0.00,CLR,,0.00,WeatherDisplay:10.37,2013-05-11 14:53:00,
2013-05-11 09:58:00,60.2,53.7,29.97,West,268,6.0,6.0,79,0.00,CLR,,0.00,WeatherDisplay:10.37,2013-05-11 14:58:00,
2013-05-11 10:03:00,60.5,54.0,29.97,WNW,296,3.5,3.5,79,0.00,CLR,,0.00,WeatherDisplay:10.37,2013-05-11 15:03:00,
2013-05-11 10:08:00,60.9,54.7,29.97,SW,227,4.6,4.6,80,0.00,CLR,,0.00,WeatherDisplay:10.37,2013-05-11 15:08:00,
2013-05-11 10:13:00,61.1,53.8,29.97,WNW,285,1.1,1.1,77,0.00,CLR,,0.00,WeatherDisplay:10.37,2013-05-11 15:13:00,
2013-05-11 10:18:00,61.2,54.3,29.97,WSW,244,8.0,8.0,78,0.00,CLR,,0.00,WeatherDisplay:10.37,2013-05-11 15:18:00,
2013-05-11 10:23:00,61.3,54.7,29.97,NW,305,3.5,3.5,79,0.00,CLR,,0.00,WeatherDisplay:10.37,2013-05-11 15:23:00,
2013-05-11 10:28:00,61.7,55.1,29.97,WSW,246,6.9,6.9,79,0.00,CLR,,0.00,WeatherDisplay:10.37,2013-05-11 15:28:00,
2013-05-11 10:33:00,62.0,54.3,29.98,WSW,256,8.1,8.1,76,0.00,CLR,,0.00,WeatherDisplay:10.37,2013-05-11 15:33:00,
2013-05-11 10:38:00,61.8,54.2,29.98,West,265,4.6,4.6,76,0.00,CLR,,0.00,WeatherDisplay:10.37,2013-05-11 15:38:00,
2013-05-11 10:43:00,61.5,53.9,29.97,WSW,246,6.9,6.9,76,0.00,CLR,,0.00,WeatherDisplay:10.37,2013-05-11 15:43:00,
2013-05-11 10:48:00,61.5,53.5,29.97,SW,227,1.1,1.1,75,0.00,CLR,,0.00,WeatherDisplay:10.37,2013-05-11 15:48:00,
2013-05-11 10:53:00,62.4,55.4,29.97,West,268,5.0,5.0,78,0.00,CLR,,0.00,WeatherDisplay:10.37,2013-05-11 15:53:00,
2013-05-11 10:58:00,63.0,54.9,29.98,West,266,2.3,2.3,75,0.00,CLR,,0.00,WeatherDisplay:10.37,2013-05-11 15:58:00,
2013-05-11 11:03:00,63.3,56.0,29.98,West,267,9.0,9.0,77,0.00,CLR,,0.00,WeatherDisplay:10.37,2013-05-11 16:03:00,
2013-05-11 11:08:00,63.1,54.7,29.98,WSW,258,5.8,5.8,74,0.00,CLR,,0.00,WeatherDisplay:10.37,2013-05-11 16:08:00,
2013-05-11 11:13:00,62.8,55.1,29.98,West,261,6.9,6.9,76,0.00,CLR,,0.00,WeatherDisplay:10.37,2013-05-11 16:13:00,
2013-05-11 11:18:00,62.9,55.2,29.98,SW,234,5.8,5.8,76,0.00,CLR,,0.00,WeatherDisplay:10.37,2013-05-11 16:18:00,
2013-05-11 11:23:00,63.8,56.1,29.98,West,268,6.9,6.9,76,0.00,CLR,,0.00,WeatherDisplay:10.37,2013-05-11 16:23:00,
2013-05-11 11:28:00,64.0,55.2,29.98,West,269,8.1,8.1,73,0.00,CLR,,0.00,WeatherDisplay:10.37,2013-05-11 16:28:00,
2013-05-11 11:33:00,63.6,54.0,29.98,West,280,3.5,3.5,71,0.00,CLR,,0.00,WeatherDisplay:10.37,2013-05-11 16:33:00,
2013-05-11 11:38:00,63.8,55.7,29.98,West,261,4.6,4.6,75,0.00,CLR,,0.00,WeatherDisplay:10.37,2013-05-11 16:38:00,
2013-05-11 11:43:00,64.2,55.4,29.98,SW,222,4.0,4.0,73,0.00,CLR,,0.00,WeatherDisplay:10.37,2013-05-11 16:43:00,
2013-05-11 11:49:00,64.7,56.2,29.98,SW,220,6.9,6.9,74,0.00,CLR,,0.00,WeatherDisplay:10.37,2013-05-11 16:49:00,
2013-05-11 11:54:00,65.2,55.9,29.98,North,355,5.8,5.8,72,0.00,CLR,,0.00,WeatherDisplay:10.37,2013-05-11 16:54:00,
2013-05-11 11:59:00,65.4,55.0,29.98,NNW,341,8.1,8.1,69,0.00,CLR,,0.00,WeatherDisplay:10.37,2013-05-11 16:59:00,
2013-05-11 12:04:00,65.8,54.5,29.98,WSW,246,5.0,5.0,67,0.00,CLR,,0.00,WeatherDisplay:10.37,2013-05-11 17:04:00,
2013-05-11 12:09:00,66.1,55.6,29.98,WSW,245,6.9,6.9,69,0.00,CLR,,0.00,WeatherDisplay:10.37,2013-05-11 17:09:00,
2013-05-11 12:14:00,66.2,55.3,29.97,SW,214,6.9,6.9,68,0.00,CLR,,0.00,WeatherDisplay:10.37,2013-05-11 17:14:00,
2013-05-11 12:19:00,66.2,54.1,29.97,West,273,8.1,8.1,65,0.00,CLR,,0.00,WeatherDisplay:10.37,2013-05-11 17:19:00,
2013-05-11 12:24:00,66.3,53.8,29.97,WSW,248,5.0,5.0,64,0.00,CLR,,0.00,WeatherDisplay:10.37,2013-05-11 17:24:00,
2013-05-11 12:29:00,66.9,54.7,29.97,WNW,288,5.8,5.8,65,0.00,CLR,,0.00,WeatherDisplay:10.37,2013-05-11 17:29:00,
2013-05-11 12:34:00,67.3,56.4,29.97,West,263,6.9,6.9,68,0.00,CLR,,0.00,WeatherDisplay:10.37,2013-05-11 17:34:00,
2013-05-11 12:39:00,68.1,56.3,29.97,West,273,10.4,10.4,66,0.00,CLR,,0.00,WeatherDisplay:10.37,2013-05-11 17:39:00,
2013-05-11 12:44:00,67.6,55.0,29.97,NW,322,4.0,4.0,64,0.00,CLR,,0.00,WeatherDisplay:10.37,2013-05-11 17:44:00,
2013-05-11 12:49:00,67.2,53.7,29.97,West,274,4.6,4.6,62,0.00,CLR,,0.00,WeatherDisplay:10.37,2013-05-11 17:49:00,
2013-05-11 12:54:00,67.7,55.5,29.97,WSW,250,6.9,6.9,65,0.00,CLR,,0.00,WeatherDisplay:10.37,2013-05-11 17:54:00,
2013-05-11 12:59:00,68.3,53.9,29.97,WSW,251,10.4,10.4,60,0.00,CLR,,0.00,WeatherDisplay:10.37,2013-05-11 17:59:00,
2013-05-11 13:04:00,68.8,55.2,29.97,West,263,9.2,9.2,62,0.00,CLR,,0.00,WeatherDisplay:10.37,2013-05-11 18:04:00,
2013-05-11 13:09:00,68.7,53.3,29.96,West,265,8.1,8.1,58,0.00,CLR,,0.00,WeatherDisplay:10.37,2013-05-11 18:09:00,
2013-05-11 13:14:00,68.8,53.4,29.96,West,278,8.1,8.1,58,0.00,CLR,,0.00,WeatherDisplay:10.37,2013-05-11 18:14:00,
2013-05-11 13:19:00,69.4,54.4,29.95,WNW,302,9.2,9.2,59,0.00,CLR,,0.00,WeatherDisplay:10.37,2013-05-11 18:19:00,
2013-05-11 13:24:00,69.6,53.2,29.95,West,262,9.2,9.2,56,0.00,CLR,,0.00,WeatherDisplay:10.37,2013-05-11 18:24:00,
2013-05-11 13:29:00,69.7,53.3,29.95,North,355,3.5,3.5,56,0.00,CLR,,0.00,WeatherDisplay:10.37,2013-05-11 18:29:00,
2013-05-11 13:34:00,69.6,53.7,29.95,West,259,4.6,4.6,57,0.00,CLR,,0.00,WeatherDisplay:10.37,2013-05-11 18:34:00,
2013-05-11 13:39:00,69.3,52.9,29.95,SW,227,6.9,6.9,56,0.00,CLR,,0.00,WeatherDisplay:10.37,2013-05-11 18:39:00,
2013-05-11 13:44:00,69.5,54.1,29.95,WSW,246,8.1,8.1,58,0.00,CLR,,0.00,WeatherDisplay:10.37,2013-05-11 18:44:00,
2013-05-11 13:49:00,69.9,54.9,29.95,WSW,237,4.6,4.6,59,0.00,CLR,,0.00,WeatherDisplay:10.37,2013-05-11 18:49:00,
2013-05-11 13:54:00,69.9,52.0,29.95,NNW,328,8.1,8.1,53,0.00,CLR,,0.00,WeatherDisplay:10.37,2013-05-11 18:54:00,
2013-05-11 13:59:00,70.0,51.6,29.95,NW,309,3.5,3.5,52,0.00,CLR,,0.00,WeatherDisplay:10.37,2013-05-11 18:59:00,
2013-05-11 14:04:00,70.0,53.1,29.94,WNW,291,6.9,6.9,55,0.00,CLR,,0.00,WeatherDisplay:10.37,2013-05-11 19:04:00,
2013-05-11 14:09:00,70.6,55.6,29.95,NW,322,3.5,3.5,59,0.00,CLR,,0.00,WeatherDisplay:10.37,2013-05-11 19:09:00,
2013-05-11 14:14:00,71.4,56.3,29.94,West,272,3.5,3.5,59,0.00,CLR,,0.00,WeatherDisplay:10.37,2013-05-11 19:14:00,
2013-05-11 14:19:00,71.6,53.6,29.94,West,281,3.5,3.5,53,0.00,CLR,,0.00,WeatherDisplay:10.37,2013-05-11 19:19:00,
2013-05-11 14:24:00,71.7,54.2,29.94,WSW,248,8.1,8.1,54,0.00,CLR,,0.00,WeatherDisplay:10.37,2013-05-11 19:24:00,
2013-05-11 14:29:00,71.8,53.2,29.94,NNW,340,4.6,4.6,52,0.00,CLR,,0.00,WeatherDisplay:10.37,2013-05-11 19:29:00,
2013-05-11 14:34:00,71.8,53.2,29.94,North,9,3.5,3.5,52,0.00,CLR,,0.00,WeatherDisplay:10.37,2013-05-11 19:34:00,
2013-05-11 14:39:00,71.6,52.5,29.94,NNE,29,1.1,1.1,51,0.00,CLR,,0.00,WeatherDisplay:10.37,2013-05-11 19:39:00,
2013-05-11 14:44:00,71.4,52.9,29.95,WSW,257,4.6,4.6,52,0.00,CLR,,0.00,WeatherDisplay:10.37,2013-05-11 19:44:00,
2013-05-11 14:49:00,72.1,54.0,29.94,NNE,15,12.7,12.7,53,0.00,CLR,,0.00,WeatherDisplay:10.37,2013-05-11 19:49:00,
2013-05-11 14:54:00,72.7,54.6,29.94,WNW,300,6.9,6.9,53,0.00,CLR,,0.00,WeatherDisplay:10.37,2013-05-11 19:54:00,
2013-05-11 14:59:00,73.1,54.9,29.94,North,355,3.5,3.5,53,0.00,CLR,,0.00,WeatherDisplay:10.37,2013-05-11 19:59:00,
2013-05-11 15:04:00,73.0,52.7,29.94,NW,309,1.1,1.1,49,0.00,CLR,,0.00,WeatherDisplay:10.37,2013-05-11 20:04:00,
2013-05-11 15:09:00,73.1,53.9,29.94,West,271,2.3,2.3,51,0.00,CLR,,0.00,WeatherDisplay:10.37,2013-05-11 20:09:00,
2013-05-11 15:14:00,73.7,53.9,29.94,WSW,238,3.5,3.5,50,0.00,CLR,,0.00,WeatherDisplay:10.37,2013-05-11 20:14:00,
2013-05-11 15:19:00,74.4,55.1,29.94,WNW,284,8.1,8.1,51,0.00,CLR,,0.00,WeatherDisplay:10.37,2013-05-11 20:19:00,
2013-05-11 15:24:00,74.2,52.7,29.94,West,272,2.0,2.0,47,0.00,CLR,,0.00,WeatherDisplay:10.37,2013-05-11 20:24:00,
2013-05-11 15:29:00,73.2,51.8,29.94,NW,321,1.1,0.0,47,0.00,CLR,,0.00,WeatherDisplay:10.37,2013-05-11 20:29:00,
2013-05-11 15:34:00,72.7,54.1,29.94,North,360,2.3,2.3,52,0.00,CLR,,0.00,WeatherDisplay:10.37,2013-05-11 20:34:00,
2013-05-11 15:39:00,72.3,52.1,29.94,West,279,6.9,6.9,49,0.00,CLR,,0.00,WeatherDisplay:10.37,2013-05-11 20:39:00,
2013-05-11 15:44:00,72.1,54.5,29.94,SW,215,6.9,6.9,54,0.00,CLR,,0.00,WeatherDisplay:10.37,2013-05-11 20:44:00,
2013-05-11 15:49:00,71.7,53.1,29.94,SW,225,3.5,3.5,52,0.00,CLR,,0.00,WeatherDisplay:10.37,2013-05-11 20:49:00,
2013-05-11 15:54:00,71.7,53.1,29.94,NW,315,3.5,0.0,52,0.00,CLR,,0.00,WeatherDisplay:10.37,2013-05-11 20:54:00,
2013-05-11 15:59:00,72.4,54.8,29.93,SW,236,5.8,5.8,54,0.00,CLR,,0.00,WeatherDisplay:10.37,2013-05-11 20:59:00,
2013-05-11 16:04:00,73.3,53.5,29.93,SW,225,4.6,4.6,50,0.00,CLR,,0.00,WeatherDisplay:10.37,2013-05-11 21:04:00,
2013-05-11 16:09:00,73.9,54.6,29.93,NW,304,11.5,11.5,51,0.00,CLR,,0.00,WeatherDisplay:10.37,2013-05-11 21:09:00,
2013-05-11 16:14:00,74.1,53.7,29.93,WNW,285,5.8,5.8,49,0.00,CLR,,0.00,WeatherDisplay:10.37,2013-05-11 21:14:00,
2013-05-11 16:19:00,74.3,56.1,29.93,WSW,244,8.1,8.1,53,0.00,CLR,,0.00,WeatherDisplay:10.37,2013-05-11 21:19:00,
2013-05-11 16:24:00,74.7,55.4,29.93,SSW,200,8.1,8.1,51,0.00,CLR,,0.00,WeatherDisplay:10.37,2013-05-11 21:24:00,
2013-05-11 16:29:00,74.9,56.1,29.92,West,259,10.4,10.4,52,0.00,CLR,,0.00,WeatherDisplay:10.37,2013-05-11 21:29:00,
2013-05-11 16:34:00,75.4,56.0,29.92,SW,232,9.0,9.0,51,0.00,CLR,,0.00,WeatherDisplay:10.37,2013-05-11 21:34:00,
2013-05-11 16:39:00,75.7,56.3,29.92,SSW,212,6.9,6.9,51,0.00,CLR,,0.00,WeatherDisplay:10.37,2013-05-11 21:39:00,
2013-05-11 16:44:00,75.4,54.9,29.93,West,264,9.2,9.2,49,0.00,CLR,,0.00,WeatherDisplay:10.37,2013-05-11 21:44:00,
2013-05-11 16:49:00,75.3,54.8,29.92,West,272,3.5,3.5,49,0.00,CLR,,0.00,WeatherDisplay:10.37,2013-05-11 21:49:00,
2013-05-11 16:54:00,75.5,55.0,29.92,SW,232,6.9,6.9,49,0.00,CLR,,0.00,WeatherDisplay:10.37,2013-05-11 21:54:00,
2013-05-11 16:59:00,75.6,55.6,29.92,WSW,257,3.5,3.5,50,0.00,CLR,,0.00,WeatherDisplay:10.37,2013-05-11 21:59:00,
2013-05-11 17:04:00,76.1,56.1,29.92,West,277,1.1,0.0,50,0.00,CLR,,0.00,WeatherDisplay:10.37,2013-05-11 22:04:00,
2013-05-11 17:09:00,76.2,56.2,29.92,West,263,3.5,3.5,50,0.00,CLR,,0.00,WeatherDisplay:10.37,2013-05-11 22:09:00,
2013-05-11 17:14:00,75.9,55.9,29.92,West,280,8.1,8.1,50,0.00,CLR,,0.00,WeatherDisplay:10.37,2013-05-11 22:14:00,
2013-05-11 17:19:00,74.9,55.0,29.91,WSW,249,4.6,4.6,50,0.00,CLR,,0.00,WeatherDisplay:10.37,2013-05-11 22:19:00,
2013-05-11 17:24:00,74.2,55.4,29.91,West,268,4.6,4.6,52,0.00,CLR,,0.00,WeatherDisplay:10.37,2013-05-11 22:24:00,
2013-05-11 17:29:00,73.4,55.2,29.92,WSW,252,4.6,4.6,53,0.00,CLR,,0.00,WeatherDisplay:10.37,2013-05-11 22:29:00,
2013-05-11 17:34:00,72.9,54.8,29.92,WSW,252,3.5,3.5,53,0.00,CLR,,0.00,WeatherDisplay:10.37,2013-05-11 22:34:00,
2013-05-11 17:39:00,72.4,55.8,29.92,SW,220,4.0,4.0,56,0.00,CLR,,0.00,WeatherDisplay:10.37,2013-05-11 22:39:00,
2013-05-11 17:44:00,71.9,54.9,29.92,SW,234,3.5,3.5,55,0.00,CLR,,0.00,WeatherDisplay:10.37,2013-05-11 22:44:00,
2013-05-11 17:49:00,71.5,55.0,29.92,WSW,255,3.5,3.5,56,0.00,CLR,,0.00,WeatherDisplay:10.37,2013-05-11 22:49:00,
2013-05-11 17:54:00,71.2,55.2,29.92,West,263,3.5,3.5,57,0.00,CLR,,0.00,WeatherDisplay:10.37,2013-05-11 22:54:00,
2013-05-11 17:59:00,70.9,55.4,29.91,West,265,2.3,2.3,58,0.00,CLR,,0.00,WeatherDisplay:10.37,2013-05-11 22:59:00,
2013-05-11 18:05:00,70.7,55.7,29.92,WSW,254,4.6,4.6,59,0.00,CLR,,0.00,WeatherDisplay:10.37,2013-05-11 23:05:00,
2013-05-11 18:10:00,70.2,54.7,29.92,WSW,251,4.6,4.6,58,0.00,CLR,,0.00,WeatherDisplay:10.37,2013-05-11 23:10:00,
2013-05-11 18:15:00,69.8,54.4,29.92,West,270,2.3,2.3,58,0.00,CLR,,0.00,WeatherDisplay:10.37,2013-05-11 23:15:00,
2013-05-11 18:20:00,69.5,54.5,29.92,NW,315,3.5,0.0,59,0.00,CLR,,0.00,WeatherDisplay:10.37,2013-05-11 23:20:00,
2013-05-11 18:25:00,69.4,54.4,29.92,West,261,5.8,5.8,59,0.00,CLR,,0.00,WeatherDisplay:10.37,2013-05-11 23:25:00,
2013-05-11 18:30:00,69.2,54.3,29.92,WNW,298,3.5,3.5,59,0.00,CLR,,0.00,WeatherDisplay:10.37,2013-05-11 23:30:00,
2013-05-11 18:35:00,69.0,54.5,29.92,NW,322,3.5,3.5,60,0.00,CLR,,0.00,WeatherDisplay:10.37,2013-05-11 23:35:00,
2013-05-11 18:40:00,68.9,55.3,29.92,NW,313,3.0,3.0,62,0.00,CLR,,0.00,WeatherDisplay:10.37,2013-05-11 23:40:00,
2013-05-11 18:45:00,68.8,54.3,29.92,NW,319,4.0,4.0,60,0.00,CLR,,0.00,WeatherDisplay:10.37,2013-05-11 23:45:00,
2013-05-11 18:50:00,68.8,54.8,29.92,North,355,3.5,3.5,61,0.00,CLR,,0.00,WeatherDisplay:10.37,2013-05-11 23:50:00,
2013-05-11 18:55:00,68.6,54.6,29.92,West,268,6.9,6.9,61,0.00,CLR,,0.00,WeatherDisplay:10.37,2013-05-11 23:55:00,
2013-05-11 19:00:00,68.4,54.9,29.93,WNW,296,3.5,3.5,62,0.00,CLR,,0.00,WeatherDisplay:10.37,2013-05-12 00:00:00,
2013-05-11 19:05:00,68.2,54.7,29.93,West,280,3.5,3.5,62,0.00,CLR,,0.00,WeatherDisplay:10.37,2013-05-12 00:05:00,
2013-05-11 19:10:00,68.1,55.0,29.93,WNW,296,1.1,0.0,63,0.00,CLR,,0.00,WeatherDisplay:10.37,2013-05-12 00:10:00,
2013-05-11 19:15:00,67.9,54.8,29.93,NNW,333,0.0,0.0,63,0.00,CLR,,0.00,WeatherDisplay:10.37,2013-05-12 00:15:00,
2013-05-11 19:20:00,67.8,55.2,29.94,NNW,333,0.0,0.0,64,0.00,CLR,,0.00,WeatherDisplay:10.37,2013-05-12 00:20:00,
2013-05-11 19:25:00,67.7,55.1,29.94,NW,311,0.0,0.0,64,0.00,CLR,,0.00,WeatherDisplay:10.37,2013-05-12 00:25:00,
2013-05-11 19:30:00,67.6,55.4,29.94,NNW,331,1.1,0.0,65,0.00,CLR,,0.00,WeatherDisplay:10.37,2013-05-12 00:30:00,
2013-05-11 19:35:00,67.4,55.2,29.94,NNE,19,1.1,1.1,65,0.00,CLR,,0.00,WeatherDisplay:10.37,2013-05-12 00:35:00,
2013-05-11 19:40:00,67.1,54.9,29.95,North,349,2.3,2.3,65,0.00,CLR,,0.00,WeatherDisplay:10.37,2013-05-12 00:40:00,
2013-05-11 19:45:00,66.8,52.5,29.95,North,360,3.5,3.5,60,0.00,CLR,,0.00,WeatherDisplay:10.37,2013-05-12 00:45:00,
2013-05-11 19:50:00,66.6,49.4,29.96,North,351,2.3,2.3,54,0.00,CLR,,0.00,WeatherDisplay:10.37,2013-05-12 00:50:00,
2013-05-11 19:55:00,66.3,47.1,29.96,ENE,60,2.3,2.3,50,0.00,CLR,,0.00,WeatherDisplay:10.37,2013-05-12 00:55:00,
2013-05-11 20:00:00,66.1,44.7,29.97,North,5,3.5,3.5,46,0.00,CLR,,0.00,WeatherDisplay:10.37,2013-05-12 01:00:00,
2013-05-11 20:05:00,65.9,43.9,29.97,NNW,328,3.5,3.5,45,0.00,CLR,,0.00,WeatherDisplay:10.37,2013-05-12 01:05:00,
2013-05-11 20:10:00,65.7,43.2,29.97,NW,319,3.5,3.5,44,0.00,CLR,,0.00,WeatherDisplay:10.37,2013-05-12 01:10:00,
2013-05-11 20:15:00,65.4,42.3,29.98,NW,319,4.0,4.0,43,0.00,CLR,,0.00,WeatherDisplay:10.37,2013-05-12 01:15:00,
2013-05-11 20:20:00,65.1,42.0,29.98,North,351,5.0,5.0,43,0.00,CLR,,0.00,WeatherDisplay:10.37,2013-05-12 01:20:00,
2013-05-11 20:25:00,64.8,41.2,29.98,NNW,342,2.3,2.3,42,0.00,CLR,,0.00,WeatherDisplay:10.37,2013-05-12 01:25:00,
2013-05-11 20:30:00,64.3,40.7,29.99,NNW,345,3.5,3.5,42,0.00,CLR,,0.00,WeatherDisplay:10.37,2013-05-12 01:30:00,
2013-05-11 20:35:00,64.0,40.4,29.99,NW,316,1.1,1.1,42,0.00,CLR,,0.00,WeatherDisplay:10.37,2013-05-12 01:35:00,
2013-05-11 20:40:00,63.6,40.7,29.99,NNE,26,3.5,3.5,43,0.00,CLR,,0.00,WeatherDisplay:10.37,2013-05-12 01:40:00,
2013-05-11 20:45:00,63.2,40.3,30.00,NNE,22,3.5,3.5,43,0.00,CLR,,0.00,WeatherDisplay:10.37,2013-05-12 01:45:00,
2013-05-11 20:50:00,62.9,40.6,30.00,NNE,24,4.6,4.6,44,0.00,CLR,,0.00,WeatherDisplay:10.37,2013-05-12 01:50:00,
2013-05-11 20:55:00,62.6,40.4,30.00,NNE,17,3.5,3.5,44,0.00,CLR,,0.00,WeatherDisplay:10.37,2013-05-12 01:55:00,
2013-05-11 21:00:00,62.3,40.7,30.01,North,355,2.3,2.3,45,0.00,CLR,,0.00,WeatherDisplay:10.37,2013-05-12 02:00:00,
2013-05-11 21:05:00,62.0,40.4,30.01,NNE,28,3.5,3.5,45,0.00,CLR,,0.00,WeatherDisplay:10.37,2013-05-12 02:05:00,
2013-05-11 21:10:00,61.7,40.1,30.01,NNW,336,3.5,3.5,45,0.00,CLR,,0.00,WeatherDisplay:10.37,2013-05-12 02:10:00,
2013-05-11 21:15:00,61.5,40.5,30.02,NNW,344,1.1,1.1,46,0.00,CLR,,0.00,WeatherDisplay:10.37,2013-05-12 02:15:00,
2013-05-11 21:20:00,61.3,39.8,30.02,NNE,30,1.1,1.1,45,0.00,CLR,,0.00,WeatherDisplay:10.37,2013-05-12 02:20:00,
2013-05-11 21:25:00,61.1,40.1,30.02,NNE,12,3.5,3.5,46,0.00,CLR,,0.00,WeatherDisplay:10.37,2013-05-12 02:25:00,
2013-05-11 21:30:00,60.9,39.4,30.03,NNE,18,2.3,2.3,45,0.00,CLR,,0.00,WeatherDisplay:10.37,2013-05-12 02:30:00,
2013-05-11 21:35:00,60.7,39.8,30.03,NNE,18,2.3,2.3,46,0.00,CLR,,0.00,WeatherDisplay:10.37,2013-05-12 02:35:00,
2013-05-11 21:40:00,60.4,39.5,30.03,NNW,330,3.5,3.5,46,0.00,CLR,,0.00,WeatherDisplay:10.37,2013-05-12 02:40:00,
2013-05-11 21:45:00,60.2,39.9,30.04,NNE,15,2.3,2.3,47,0.00,CLR,,0.00,WeatherDisplay:10.37,2013-05-12 02:45:00,
2013-05-11 21:50:00,60.0,40.2,30.04,North,11,2.3,2.3,48,0.00,CLR,,0.00,WeatherDisplay:10.37,2013-05-12 02:50:00,
2013-05-11 21:55:00,59.8,40.1,30.04,North,5,2.3,2.3,48,0.00,CLR,,0.00,WeatherDisplay:10.37,2013-05-12 02:55:00,
2013-05-11 22:00:00,59.5,40.3,30.04,North,5,0.0,0.0,49,0.00,CLR,,0.00,WeatherDisplay:10.37,2013-05-12 03:00:00,
2013-05-11 22:05:00,59.2,40.6,30.05,North,11,2.3,2.3,50,0.00,CLR,,0.00,WeatherDisplay:10.37,2013-05-12 03:05:00,
2013-05-11 22:10:00,58.9,39.8,30.05,North,355,3.5,3.5,49,0.00,CLR,,0.00,WeatherDisplay:10.37,2013-05-12 03:10:00,
2013-05-11 22:15:00,58.8,39.7,30.05,NE,45,4.6,4.6,49,0.00,CLR,,0.00,WeatherDisplay:10.37,2013-05-12 03:15:00,
2013-05-11 22:20:00,58.6,39.5,30.05,North,5,2.3,2.3,49,0.00,CLR,,0.00,WeatherDisplay:10.37,2013-05-12 03:20:00,
2013-05-11 22:25:00,58.4,39.3,30.05,North,350,3.5,3.5,49,0.00,CLR,,0.00,WeatherDisplay:10.37,2013-05-12 03:25:00,
2013-05-11 22:30:00,58.3,39.2,30.06,North,360,2.3,2.3,49,0.00,CLR,,0.00,WeatherDisplay:10.37,2013-05-12 03:30:00,
2013-05-11 22:35:00,58.1,38.5,30.06,North,349,2.3,2.3,48,0.00,CLR,,0.00,WeatherDisplay:10.37,2013-05-12 03:35:00,
2013-05-11 22:40:00,58.0,37.9,30.06,North,355,5.8,5.8,47,0.00,CLR,,0.00,WeatherDisplay:10.37,2013-05-12 03:40:00,
2013-05-11 22:45:00,58.0,37.9,30.06,NNW,340,6.0,6.0,47,0.00,CLR,,0.00,WeatherDisplay:10.37,2013-05-12 03:45:00,
2013-05-11 22:50:00,57.9,37.2,30.06,North,5,3.5,3.5,46,0.00,CLR,,0.00,WeatherDisplay:10.37,2013-05-12 03:50:00,
2013-05-11 22:55:00,57.7,37.6,30.07,NNW,337,1.1,1.1,47,0.00,CLR,,0.00,WeatherDisplay:10.37,2013-05-12 03:55:00,
2013-05-11 23:00:00,57.4,37.9,30.06,North,355,2.3,2.3,48,0.00,CLR,,0.00,WeatherDisplay:10.37,2013-05-12 04:00:00,
2013-05-11 23:01:00,57.4,37.9,30.07,North,355,1.1,1.1,48,0.00,CLR,,0.00,WeatherDisplay:10.37,2013-05-12 04:01:00,
2013-05-11 23:06:00,57.1,37.6,30.07,NNE,17,1.1,0.0,48,0.00,CLR,,0.00,WeatherDisplay:10.37,2013-05-12 04:06:00,
2013-05-11 23:11:00,56.9,37.9,30.07,North,360,3.5,3.5,49,0.00,CLR,,0.00,WeatherDisplay:10.37,2013-05-12 04:11:00,
2013-05-11 23:16:00,56.6,38.2,30.07,NNW,343,0.0,0.2,50,0.00,CLR,,0.00,WeatherDisplay:10.37,2013-05-12 04:16:00,
2013-05-11 23:21:00,56.3,38.9,30.07,NW,322,1.0,1.0,52,0.00,CLR,,0.00,WeatherDisplay:10.37,2013-05-12 04:21:00,
2013-05-11 23:26:00,56.0,38.6,30.07,NNE,21,0.0,0.0,52,0.00,CLR,,0.00,WeatherDisplay:10.37,2013-05-12 04:26:00,
2013-05-11 23:31:00,55.7,38.8,30.08,NNE,27,0.0,0.0,53,0.00,CLR,,0.00,WeatherDisplay:10.37,2013-05-12 04:31:00,
2013-05-11 23:36:00,55.5,38.6,30.08,NNE,27,0.0,0.0,53,0.00,CLR,,0.00,WeatherDisplay:10.37,2013-05-12 04:36:00,
2013-05-11 23:41:00,55.2,39.3,30.08,NNE,27,0.0,0.0,55,0.00,CLR,,0.00,WeatherDisplay:10.37,2013-05-12 04:41:00,
2013-05-11 23:46:00,55.0,39.1,30.08,NNE,27,0.0,0.0,55,0.00,CLR,,0.00,WeatherDisplay:10.37,2013-05-12 04:46:00,
2013-05-11 23:51:00,54.7,39.3,30.08,NNE,27,0.0,0.0,56,0.00,CLR,,0.00,WeatherDisplay:10.37,2013-05-12 04:51:00,
2013-05-11 23:56:00,54.4,39.0,30.08,NNE,27,0.0,0.0,56,0.00,CLR,,0.00,WeatherDisplay:10.37,2013-05-12 04:56:00,